Location: Abundant Grace Fellowship
(35.0349°N, 90.0924°W)
Time: 21:35:39
(UTC+00:00)

COSMOS 2455 - Pass Details

Date: 18 January 2026
Orbit: 899 x 909 km, 67.1° (Epoch: 10 February)

Event Time Altitude Azimuth Distance (km) Brightness Sun altitude
Rises 00:58:40 0° 344° (NNW) 3,542 6.0 -21.2°
Reaches altitude 10° 01:01:35 10° 356° (N) 2,597 5.2 -21.8°
Enters shadow 01:04:30 22° 21° (NNE) 1,859 4.2 -22.3°
